Printer-friendly version

IAU Minor Planet Center

Minor Planet Center

MPEC 2006-G14 : 2006 GC

The following Minor Planet Electronic Circular may be linked-to from your own Web pages, but must not otherwise be redistributed electronically.


Read MPEC 2006-G13 Read MPEC 2006-G15


M.P.E.C. 2006-G14                                Issued 2006 Apr. 3, 14:09 UT

     The Minor Planet Electronic Circulars contain information on unusual
         minor planets and routine data on comets.  They are published
   on behalf of Commission 20 of the International Astronomical Union by the
          Minor Planet Center, Smithsonian Astrophysical Observatory,
                          Cambridge, MA 02138, U.S.A.

                  Supported in part by the Brinson Foundation
                  Supported in part by the TABASGO Foundation
             Prepared using the Tamkin Foundation Computer Network

                              MPC@CFA.HARVARD.EDU
          URL http://cfa-www.harvard.edu/iau/mpc.html  ISSN 1523-6714

                                    2006 GC

Observations:
     K06G00C* C2006 04 02.19170 12 51 11.24 -00 02 44.3          20.2 V EG014691
     K06G00C  C2006 04 02.20901 12 51 15.60 -00 01 50.6          20.5 V EG014691
     K06G00C  C2006 04 02.22634 12 51 19.84 -00 00 57.1          20.6 V EG014691
     K06G00C  C2006 04 03.05665 12 55 12.20 +00 43 53.2                 EG014J95
     K06G00C  C2006 04 03.06115 12 55 13.41 +00 44 09.7                 EG014J95
     K06G00C  C2006 04 03.06611 12 55 14.84 +00 44 26.5          20.1 R EG014J95

Observer details:
691 Steward Observatory, Kitt Peak.  Observer A. F. Tubbiolo.  0.9-m f/3
    reflector + CCD.
J95 Great Shefford.  Observer P. Birtwhistle.  0.40-m f/6.0 Schmidt-Cassegrain
    + CCD.

Orbital elements:
2006 GC                                                  Earth MOID = 0.0390 AU
Epoch 2006 Mar. 6.0 TT = JDT 2453800.5                  MPC
M 342.37368              (2000.0)            P               Q
n   0.23975073     Peri.   63.57039     -0.33335718     +0.94271696
a   2.5662330      Node   186.99229     -0.89758833     -0.32141851
e   0.6452885      Incl.    5.92161     -0.28845829     -0.08930222
P   4.11           H   24.4           G   0.15           U   9
Residuals in seconds of arc
060402 691  0.4-  0.2-    060402 691  0.1-  0.1+    060403 J95  0.4-  0.4+
060402 691  0.5+  0.1+    060403 J95  0.3+  0.6-    060403 J95  0.1+  0.1+

Ephemeris:
2006 GC                  a,e,i = 2.57, 0.65, 6                   q = 0.9103
Date    TT    R. A. (2000) Decl.     Delta      r     Elong.  Phase     V
2006 03 26    12 29.47   -04 12.3    0.179    1.176   176.6     2.9    21.3
2006 03 31    12 42.61   -01 40.8    0.137    1.136   177.3     2.4    20.6
2006 04 05    13 06.38   +02 52.4    0.0984   1.098   170.8     8.4    20.1
2006 04 10    13 58.34   +12 15.2    0.0644   1.061   157.1    21.6    19.6
2006 04 15    16 19.81   +30 22.6    0.0438   1.028   123.2    54.7    19.7
2006 04 20    20 03.78   +34 56.3    0.0531   0.997    80.8    96.2    21.5
2006 04 25    21 46.40   +27 53.4    0.0823   0.971    62.6   113.1    23.3

Kyle E. Smalley              (C) Copyright 2006 MPC           M.P.E.C. 2006-G14

Read MPEC 2006-G13 Read MPEC 2006-G15


Our Web policy. Index to the CBAT/MPC/ICQ pages.


Valid HTML 4.01!